Theta_e
312 320 317 318 321 324 326 327 326 326 326 325 324 324 323 325 325 326 326 326 326 326 326 325 324 324 323 323 323 323 322 323 324 323 325 324 322 316 317 322 318 319 316
306 315 320 318 316 317 323 325 326 325 326 327 324 325 325 324 326 328 327 326 325 326 325 325 325 325 324 324 324 323 323 324 326 324 319 315 316 315 315 316 313 316 313
302 306 309 311 314 316 317 321 324 323 325 324 323 323 323 324 323 324 325 326 327 327 326 326 326 327 327 326 325 325 323 323 325 325 320 311 310 311 312 310 312 313 309
299 303 305 307 308 310 314 317 321 321 321 322 323 323 322 320 323 325 326 328 329 328 329 330 329 329 328 327 327 327 325 324 322 321 322 321 316 310 306 308 308 309 305
299 299 302 304 306 309 310 314 315 314 316 322 323 322 321 323 325 325 326 326 324 324 325 326 327 327 328 327 327 326 324 325 323 321 318 319 316 316 313 306 304 304 302
298 300 300 304 303 304 305 307 309 311 312 312 313 315 317 319 321 322 320 320 317 318 318 320 321 322 322 322 322 322 323 323 322 320 319 317 315 312 312 310 307 304 300
296 297 298 298 300 300 302 303 304 304 305 306 307 307 308 311 313 314 315 316 314 314 313 315 314 315 315 316 318 317 316 317 318 318 316 316 315 314 313 312 307 303 299
298 297 297 298 298 298 300 301 301 301 302 304 303 305 305 306 306 307 309 310 311 312 310 311 311 311 311 312 312 311 311 312 312 312 310 308 307 309 309 308 306 302 299
297 298 299 298 297 297 297 299 300 300 301 302 302 302 304 305 305 305 306 306 306 306 306 306 306 307 307 308 308 308 307 308 307 305 304 302 301 301 302 303 302 304 297
292 294 295 296 298 297 297 297 298 298 298 299 300 301 302 302 303 303 302 303 302 303 302 301 302 302 303 304 305 304 303 303 302 301 299 298 297 296 296 296 297 298 298
289 291 292 293 294 296 296 296 296 296 296 297 297 298 299 299 300 300 300 299 299 299 299 299 298 299 299 300 300 299 299 297 296 295 294 293 294 293 292 292 292 291 294
288 289 290 291 292 292 293 294 295 295 296 296 296 296 297 297 298 298 298 299 297 297 297 296 296 296 297 297 297 296 295 294 293 292 292 291 291 290 290 290 289 289 289
288 288 289 289 290 290 291 291 292 293 294 295 295 295 295 295 296 296 297 296 295 295 294 294 294 294 294 294 293 292 291 290 290 290 289 289 289 288 288 288 288 288 287
287 288 288 289 289 290 289 290 290 291 292 293 294 295 295 295 295 295 295 295 294 293 292 292 292 292 292 291 290 289 288 287 286 286 286 286 287 286 285 286 286 286 286
286 287 287 288 288 289 289 289 290 290 290 291 293 293 294 294 294 294 294 293 292 291 291 290 291 291 291 290 289 288 287 286 285 285 285 286 285 286 285 284 284 285 284
286 287 288 288 288 288 288 288 288 289 290 290 291 292 292 292 293 292 292 291 290 289 289 288 289 289 290 288 290 288 286 285 284 284 285 285 284 286 286 286 286 285 283
285 286 287 287 287 287 287 287 287 288 288 289 289 290 291 291 291 291 291 290 289 288 287 287 288 288 290 291 289 287 285 285 284 284 284 284 283 283 283 283 283 283 284
285 285 286 287 287 287 286 286 286 287 287 287 287 287 287 289 290 290 290 289 289 288 287 287 287 287 289 290 288 286 285 284 283 283 283 283 282 282 281 280 279 279 279
286 286 286 286 286 285 285 284 285 285 286 285 285 285 286 286 287 287 288 287 287 286 286 285 285 286 286 289 288 285 283 281 281 281 282 283 283 283 283 281 279 279 279
285 285 285 286 285 285 284 284 284 284 285 284 284 284 285 286 286 287 286 286 286 286 285 284 285 284 285 288 287 284 283 281 280 281 281 281 283 284 283 281 279 277 276
285 285 284 284 284 284 284 284 284 284 284 284 283 283 284 284 285 285 285 285 285 284 284 284 284 284 286 287 287 285 283 282 280 280 280 282 285 285 283 281 280 278 277
284 284 284 284 284 284 283 283 283 283 283 282 282 280 279 282 283 282 281 282 283 283 282 283 282 283 284 285 287 286 284 284 280 279 280 282 283 283 283 280 281 281 275
284 283 283 283 283 283 282 281 283 282 280 276 276 276 277 280 280 281 281 281 282 284 284 284 283 283 282 285 287 287 285 284 280 280 281 283 283 282 282 282 280 272 271
283 282 282 282 282 281 280 280 281 277 274 276 276 275 276 278 277 280 281 281 282 283 284 284 284 283 282 283 283 284 285 282 280 281 279 278 277 277 273 272 271 270 270
282 280 278 279 279 278 278 276 276 273 276 276 275 276 277 278 277 280 281 280 279 283 284 286 285 284 282 282 284 284 282 280 280 275 273 272 270 269 268 267 267 268 268
278 277 276 275 278 276 277 278 271 272 274 277 277 277 277 276 277 279 281 284 285 286 288 288 286 283 285 286 286 286 285 283 281 275 272 270 269 269 267 267 266 265 264
Wind_Speed
9 2 7 5 7 9 10 12 12 11 9 4 3 3 5 5 5 6 9 8 8 8 8 7 6 5 6 7 5 3 5 5 4 3 2 1 2 4 3 4 5 8 8
14 12 4 5 5 6 7 9 10 10 8 6 3 3 3 3 4 5 7 9 8 9 8 6 6 6 5 6 6 6 3 3 4 3 1 1 2 3 4 5 4 6 7
15 13 13 10 10 9 3 4 5 5 5 6 3 2 2 1 1 3 4 8 11 9 8 8 7 7 6 6 6 5 6 5 2 6 2 2 2 2 1 5 4 4 5
15 9 13 11 11 9 9 9 7 3 3 5 4 4 3 3 2 3 2 3 5 6 7 8 7 7 4 5 5 4 5 3 3 1 5 1 1 3 2 2 4 5 5
10 14 14 13 10 9 9 5 10 7 8 1 3 3 3 2 2 2 3 1 1 3 4 4 4 3 2 2 2 3 4 3 3 3 2 3 1 2 2 3 3 2 3
8 11 8 10 8 7 6 6 8 7 6 6 6 5 5 5 3 2 3 1 1 2 3 3 3 3 3 3 2 1 1 2 3 2 3 2 2 3 3 3 3 3 3
11 10 10 9 6 8 8 7 7 6 6 5 5 6 6 5 5 4 2 2 2 1 2 3 1 1 3 3 3 4 4 2 3 3 2 1 1 1 2 2 2 3 3
7 6 3 2 10 10 8 6 6 6 6 8 9 5 6 3 2 4 3 2 1 2 1 1 2 3 3 4 4 3 3 4 5 5 4 3 3 1 1 1 2 2 2
3 5 4 6 5 4 7 6 7 8 6 4 3 1 4 7 5 5 2 0 2 2 2 3 4 4 4 4 5 3 4 5 5 5 5 4 3 4 4 3 1 1 3
9 8 8 8 6 5 3 4 2 4 1 3 4 3 4 4 3 3 4 5 3 4 5 4 4 4 5 5 6 5 5 7 5 4 6 6 4 5 5 4 3 2 1
7 8 8 7 7 5 6 5 5 4 5 4 2 3 3 4 4 4 3 5 5 4 5 5 6 5 6 5 6 7 6 7 6 6 7 7 6 5 4 4 3 4 2
5 5 5 6 8 8 9 8 7 6 6 5 4 4 5 4 3 4 4 4 5 5 5 5 5 5 5 5 6 7 6 7 7 6 7 6 4 6 5 4 5 4 4
6 6 8 8 7 8 8 9 9 8 6 4 3 3 2 1 2 3 3 4 5 5 5 5 5 5 5 6 6 7 7 7 7 5 6 5 5 5 4 4 4 3 3
6 5 6 5 4 5 6 7 7 6 7 7 5 4 2 1 2 2 3 3 3 4 4 4 6 6 6 6 7 7 8 8 8 6 6 6 5 4 4 4 4 3 4
7 6 6 5 5 5 5 5 5 5 6 5 4 3 2 1 3 4 3 3 3 3 3 3 3 5 6 6 8 8 9 9 8 7 7 8 8 10 7 3 3 4 4
6 6 6 7 7 7 6 6 7 7 5 5 5 5 4 1 2 3 4 4 5 4 4 4 3 3 3 7 10 9 8 7 8 8 6 6 7 12 14 13 11 6 4
4 6 6 6 6 6 5 7 7 5 6 5 6 6 5 3 2 4 4 4 4 4 4 4 4 4 3 7 9 10 6 7 6 6 5 5 4 7 8 14 14 14 15
4 5 3 4 5 5 5 5 5 5 5 5 6 6 6 5 2 2 4 4 3 4 4 4 5 6 4 9 10 10 7 7 6 5 4 5 6 4 7 7 9 9 9
4 4 3 3 4 6 5 6 6 5 5 5 5 5 5 5 3 2 3 2 3 3 3 3 4 5 4 10 11 8 6 7 6 6 4 4 6 10 11 7 9 9 9
3 5 5 4 6 5 4 5 5 5 5 5 5 5 4 4 4 2 4 3 3 4 4 5 4 5 5 8 9 9 5 7 5 4 4 5 5 11 11 7 8 8 6
6 4 3 5 6 5 4 6 6 6 5 4 4 4 4 5 3 2 1 3 4 5 4 5 3 4 4 6 9 10 4 4 5 4 3 1 8 11 9 7 5 4 7
6 4 5 6 6 4 3 6 6 5 4 5 5 4 4 3 2 3 2 2 5 5 4 4 3 1 2 4 7 7 7 9 5 5 4 3 9 8 8 6 7 11 9
6 4 4 7 7 5 4 6 6 3 2 2 4 3 4 3 2 2 3 2 3 4 3 3 3 3 2 2 8 9 8 9 5 4 6 9 9 9 7 9 10 7 4
5 2 4 7 8 6 5 7 7 2 2 4 5 3 1 2 2 0 1 2 4 3 4 4 4 4 3 3 3 2 5 8 6 10 6 9 11 10 8 6 4 3 3
5 3 4 6 9 6 7 6 6 4 6 5 5 5 4 4 3 3 3 3 3 4 3 4 3 4 5 6 9 8 6 6 8 7 5 4 3 3 3 3 4 3 3
5 4 5 6 10 6 8 8 3 6 5 6 5 5 4 4 4 3 3 8 9 9 9 8 6 4 7 9 15 16 16 16 20 4 4 3 4 4 5 4 3 2 3
Wind_Direction
349 159 183 183 166 168 173 186 187 180 172 162 164 181 219 220 219 224 226 223 230 228 222 228 232 217 212 225 207 200 232 247 244 272 266 255 76 82 57 87 95 104 102
10 16 79 158 181 171 176 175 184 171 180 180 169 167 171 207 216 218 220 223 222 226 219 215 223 219 213 220 215 198 204 233 186 219 235 263 153 84 58 78 86 111 108
11 6 30 45 56 53 86 162 153 152 165 156 138 143 143 147 173 227 229 225 225 223 205 215 217 221 211 222 211 201 207 233 207 210 202 167 222 124 13 55 78 114 105
3 17 15 24 43 35 42 53 52 84 151 158 164 179 182 196 211 227 236 245 222 228 220 214 215 221 212 225 219 210 215 193 207 185 233 275 163 169 173 92 66 82 103
10 11 25 343 29 30 28 26 65 23 19 354 193 216 234 230 226 245 270 304 347 2 346 321 263 232 260 267 237 190 185 189 188 190 174 206 200 266 215 162 157 105 95
7 18 5 336 7 37 27 17 60 30 29 11 11 22 354 1 351 310 277 249 143 74 22 4 10 28 73 70 65 121 118 167 152 175 181 176 175 176 186 186 160 172 131
31 38 2 358 4 37 30 4 37 34 32 47 24 13 31 3 0 344 350 330 290 52 22 337 69 75 75 79 89 95 87 75 108 122 123 125 151 131 175 194 153 157 139
43 39 142 340 17 3 23 21 11 58 19 28 25 359 43 11 44 15 346 323 28 313 60 254 73 78 74 80 89 92 86 90 88 86 85 95 51 27 64 121 158 141 130
35 51 17 27 57 18 17 8 5 6 38 79 94 123 33 43 23 10 20 94 72 78 75 61 72 58 64 64 77 79 76 82 84 85 86 86 54 41 45 35 356 165 171
39 31 35 32 28 22 30 45 53 136 111 53 36 34 88 124 148 116 66 67 54 51 72 70 69 61 57 63 71 71 61 74 64 72 81 70 60 61 52 44 43 32 83
34 27 28 21 21 18 14 25 24 25 35 42 75 79 61 50 70 81 87 95 86 55 58 55 56 53 59 62 86 85 84 90 88 76 85 75 68 63 64 68 63 62 57
52 53 35 29 30 17 19 27 26 27 19 17 15 17 39 62 73 71 81 78 75 73 88 82 78 68 66 70 86 92 93 98 95 92 92 92 94 83 71 72 71 69 48
45 39 38 32 25 18 18 18 11 9 1 3 28 45 52 77 98 117 121 113 121 113 95 93 93 91 87 86 78 90 98 89 81 81 87 90 96 88 82 79 88 79 75
40 36 39 31 18 12 8 8 8 3 353 355 353 349 353 53 109 97 90 103 116 116 118 115 111 107 103 108 112 106 100 99 92 87 86 78 76 82 83 80 77 87 85
32 23 17 5 8 14 12 4 1 352 347 354 6 341 314 202 148 139 121 92 75 71 67 90 108 133 140 143 139 131 128 122 106 87 84 90 90 84 75 100 91 99 102
19 5 4 6 7 3 356 353 355 353 347 3 3 346 336 247 180 156 149 138 128 112 89 57 54 53 37 127 127 128 120 110 110 107 100 89 86 92 83 70 70 83 126
3 353 345 340 343 348 345 352 339 331 356 2 357 357 351 330 224 173 156 150 140 119 116 119 114 89 80 118 121 107 109 112 119 119 128 112 85 87 94 87 72 61 70
323 323 316 322 331 334 336 322 331 347 358 7 357 356 348 342 329 180 177 149 143 151 147 142 130 113 97 117 120 114 109 108 107 108 115 126 133 120 110 97 89 78 70
272 261 274 274 302 311 326 335 340 344 359 5 351 343 344 334 320 228 186 165 145 137 131 122 116 116 126 137 135 121 113 113 122 112 103 143 151 151 133 129 112 100 89
289 304 315 314 316 315 325 329 324 332 340 340 328 326 329 332 323 251 175 155 144 140 135 135 146 141 138 153 151 144 141 134 120 107 123 153 161 158 159 154 139 126 134
305 300 305 287 278 297 308 307 312 308 304 310 317 338 347 337 353 111 129 139 126 121 130 125 130 145 164 169 164 158 138 139 146 140 118 118 158 164 164 155 151 142 143
311 311 307 300 290 285 279 291 292 287 311 323 326 340 343 342 352 131 110 116 127 126 135 136 139 174 186 183 167 170 164 159 141 148 142 141 131 146 148 141 149 131 119
301 305 288 304 301 304 249 283 268 268 300 318 296 305 328 347 7 125 129 112 130 152 160 171 186 203 213 210 188 181 171 159 132 142 148 142 124 118 127 128 107 101 132
290 266 299 297 295 296 270 239 272 249 231 259 259 259 244 309 329 220 178 158 176 179 192 205 216 208 195 207 207 188 169 150 138 162 118 119 105 93 89 76 90 122 142
283 267 256 264 268 283 278 255 253 193 238 240 236 233 221 212 219 225 212 197 219 189 192 211 195 197 217 217 195 190 164 160 155 121 95 109 98 112 108 106 97 108 129
293 296 265 257 275 274 280 284 227 200 224 248 242 226 211 207 208 201 226 243 235 233 237 226 204 221 225 215 205 201 185 172 157 129 147 165 163 171 163 156 136 140 145